[[[{"header":{"parameterUnit":"kt","parameterCategory":2,"dx":1,"dy":1,"la1":30.253999710083008,"la2":30.299108505249023,"lo1":-89.0895004272461,"lo2":-89.04439544677734,"nx":28,"ny":28,"refTime":"2022-10-21T21:00:00:Z","depth":0,"parameterNumber":1,"parameterNumberName":"U-component_of_WINDS"},"data":[-1.6594,-1.6604,-1.6594,-1.6602,-1.6594,-1.6599,-1.6597,-1.6594,-1.6589,-1.6594,-1.6596,-1.6587,-1.6579,-1.6579,-1.6581,-1.6577,-1.6579,-1.6592,-1.6585,-1.6537,-1.6529,-1.6522,-1.6518,-1.6592,-1.6592,-1.6637,-1.6638,-1.6638,-1.6564,-1.6556,-1.6556,-1.655,-1.6551,-1.6533,-1.6526,-1.6528,-1.6533,-1.6526,-1.6526,-1.653,-1.6532,-1.6519,-1.6519,-1.6526,-1.6518,-1.6527,-1.6527,-1.6526,-1.6473,-1.647,-1.6534,-1.6534,-1.6534,-1.6534,-1.6534,-1.6534,-1.6507,-1.6514,-1.6503,-1.6503,-1.6496,-1.6492,-1.6497,-1.6484,-1.6485,-1.6482,-1.6469,-1.6474,-1.6466,-1.646,-1.6455,-1.646,-1.6447,-1.6454,-1.6456,-1.6458,-1.6463,-1.6403,-1.6459,-1.6459,-1.6459,-1.6459,-1.6458,0,-1.6462,-1.6453,-1.6451,-1.6447,-1.6446,-1.6442,-1.6436,-1.6439,-1.6413,-1.6415,-1.6417,-1.6416,-1.6415,-1.6416,-1.6413,-1.6406,-1.6388,-1.6384,-1.6389,-1.6396,-1.6404,-1.6401,-1.6318,-1.6382,-1.6381,-1.6381,-1.638,-1.638,-1.6406,-1.6413,-1.6395,-1.6395,-1.6388,-1.639,-1.6388,-1.6365,-1.6365,-1.6354,-1.6362,-1.6362,-1.636,-1.6366,-1.6351,-1.635,-1.6341,-1.6367,-1.634,-1.6348,-1.6343,-1.6343,-1.6345,-1.6373,-1.6374,-1.6374,-1.6375,0,-1.6375,-1.6355,-1.6362,-1.6342,-1.6338,-1.6348,-1.6331,-1.6337,-1.6323,-1.6329,-1.6329,-1.6307,-1.6309,-1.629,-1.6288,-1.6278,-1.6298,-1.6288,-1.6302,-1.6299,-1.6321,-1.632,-1.6394,-1.6404,-1.6326,-1.6327,-1.6327,0,-1.6319,-1.6329,-1.6299,-1.6304,-1.6316,-1.629,-1.6303,-1.6292,-1.6282,-1.6286,-1.626,-1.6265,-1.6238,-1.624,-1.6225,-1.6238,-1.6237,-1.623,-1.6226,-1.6233,-1.6234,-1.6232,-1.6229,-1.6214,-1.6214,-1.6214,-1.6213,0,-1.6274,-1.6268,-1.6276,-1.6272,-1.625,-1.6255,-1.6247,-1.6234,-1.6233,-1.6227,-1.6226,-1.6222,-1.622,-1.6218,-1.6198,-1.6181,-1.6213,-1.6185,-1.6206,-1.6207,-1.6213,-1.6213,-1.6284,-1.6213,-1.6213,-1.6213,-1.6213,0,-1.6224,-1.6218,-1.6232,-1.6214,-1.6213,-1.6218,-1.6212,-1.6211,-1.62,-1.619,-1.6185,-1.6165,-1.6172,-1.6147,-1.6158,-1.6141,-1.6142,-1.6135,-1.6136,-1.6135,-1.6107,-1.6151,-1.622,-1.6227,-1.6136,-1.6136,-1.6135,0,-1.618,-1.6187,-1.6164,-1.6178,-1.6179,-1.6149,-1.6155,-1.6144,-1.6131,-1.613,-1.6116,-1.6115,-1.6092,-1.6089,-1.6097,-1.6082,-1.6103,-1.6078,-1.6081,-1.6081,-1.6086,-1.6149,-1.6164,-1.6207,-1.6126,-1.6127,-1.6128,0,-1.6142,-1.6112,-1.6116,-1.611,-1.6089,-1.6089,-1.6095,-1.6088,-1.6089,-1.6079,-1.6085,-1.6082,-1.6065,-1.6059,-1.6041,-1.6051,-1.6088,-1.603,-1.6029,-1.6043,-1.6119,-1.6135,-1.6142,-1.6075,-1.6076,-1.6076,-1.6121,0,-1.6075,-1.6074,-1.6083,-1.6067,-1.6063,-1.6069,-1.6044,-1.6043,-1.6026,-1.6011,-1.6018,-1.6001,-1.5994,-1.5995,-1.5978,-1.6005,-1.5997,-1.5977,-1.595,-1.5992,-1.6006,-1.6012,-1.5931,-1.5931,-1.593,-1.5929,0,0,-1.6038,-1.6036,-1.6008,-1.6011,-1.6006,-1.5972,-1.5981,-1.5972,-1.5954,-1.5952,-1.5937,-1.5931,-1.5918,-1.5928,-1.5939,-1.5935,-1.5939,-1.5924,-1.5972,-1.5977,-1.5981,-1.5997,-1.6003,-1.5928,-1.5927,-1.5927,-1.5927,0,-1.6008,-1.5993,-1.6001,-1.599,-1.5972,-1.5954,-1.5957,-1.5933,-1.5923,-1.5927,-1.59,-1.59,-1.5894,-1.5885,-1.588,-1.5922,-1.5901,-1.5922,-1.5954,-1.5965,-1.5971,-1.5976,-1.5993,-1.5999,-1.5925,-1.5925,-1.5925,0,-1.5967,-1.5948,-1.5948,-1.5932,-1.592,-1.592,-1.5885,-1.5886,-1.5886,-1.5848,-1.5852,-1.584,-1.5825,-1.5837,-1.5841,-1.5827,-1.5869,-1.585,-1.5854,-1.5854,-1.5863,-1.5871,-1.5877,-1.5793,-1.5793,-1.5792,0,0,-1.5944,-1.5942,-1.5913,-1.5923,-1.5918,-1.589,-1.5887,-1.5868,-1.5853,-1.5848,-1.583,-1.5818,-1.5815,-1.5813,-1.5808,-1.5824,-1.582,-1.5835,-1.5841,-1.5846,-1.5849,-1.586,-1.5867,-1.5791,-1.5791,-1.5791,0,0,-1.5933,-1.59,-1.5883,-1.5892,-1.5879,-1.5851,-1.5859,-1.5839,-1.5831,-1.5827,-1.5796,-1.5791,-1.5801,-1.5789,-1.5775,-1.5798,-1.5771,-1.5774,-1.5805,-1.5812,-1.5818,-1.5821,-1.5736,0,0,0,0,0,-1.5887,-1.5904,-1.589,-1.5887,-1.5864,-1.5859,-1.5856,-1.583,-1.5813,-1.582,-1.5802,-1.5779,-1.5776,-1.5762,-1.576,-1.5776,-1.5774,-1.5777,-1.578,-1.5823,-1.5831,-1.5838,0,0,0,0,0,0,-1.5886,-1.5883,-1.5889,-1.5862,-1.5857,-1.5858,-1.5823,-1.5816,-1.5811,-1.5807,-1.5783,-1.5778,-1.5756,-1.5761,-1.576,-1.5776,-1.5737,-1.5775,-1.5778,-1.578,-1.5825,-1.5832,-1.5838,0,0,0,0,0,-1.5885,-1.5882,-1.5853,-1.5862,-1.5857,-1.5827,-1.5822,-1.5816,-1.5812,-1.5783,-1.5777,-1.5792,-1.5757,-1.5754,-1.576,-1.5777,-1.5737,-1.5737,-1.5777,-1.5779,-1.5781,-1.5829,0,0,0,0,0,0,-1.5884,-1.5877,-1.5851,-1.5849,-1.5853,-1.5826,-1.5821,-1.5816,-1.5788,-1.5782,-1.5791,-1.5788,-1.5758,-1.5755,-1.5754,-1.5779,-1.5738,-1.5737,-1.5737,-1.5778,-1.578,-1.5781,0,0,0,0,0,0,-1.5878,-1.5875,-1.585,-1.584,-1.5836,-1.5826,-1.5821,-1.5821,-1.5788,-1.5797,-1.5794,-1.579,-1.5761,-1.5757,-1.5755,-1.5757,-1.5738,-1.5738,-1.5738,-1.5737,-1.5779,-1.5781,0,0,0,0,0,0,-1.5877,-1.5874,-1.584,-1.5837,-1.5834,-1.5806,-1.5826,-1.5804,-1.5779,-1.5799,-1.5776,-1.5774,-1.5763,-1.5761,-1.5756,-1.5759,-1.5757,-1.5738,-1.5738,-1.5738,-1.5738,0,0,0,0,0,0,0,-1.5875,-1.5898,-1.5865,-1.5835,-1.5832,-1.5827,-1.5827,-1.5826,-1.5779,-1.5777,-1.5776,-1.5775,-1.574,-1.5739,-1.5739,-1.5761,0,0,-1.5738,-1.5738,0,0,0,0,0,0,0,0,-1.5899,-1.5899,-1.5865,-1.5864,-1.5864,-1.5827,-1.5827,-1.5826,-1.5778,-1.5777,-1.5776,-1.5776,-1.574,-1.5739,-1.5739,0,0,0,0,0,0,0,0,0,0,0,0,0,0,0,-1.5865,-1.5864,0,-1.5827,-1.5827,-1.5826,-1.5778,-1.5777,-1.5777,-1.5776,-1.574,-1.5739,-1.5739,0,0,0,0,0,0,0,0,0,0,0,0,0,0,0,0,0,0,0,0,0,0,0,0,0,0,0,0,0,0,0,0,0,0,0,0,0,0,0,0,0,0,0,0,0,0,0,0,0,0,0,0,0,0,0,0,0,0,0,0,0,0,0,0,0,0,0,0,0]}],[{"header":{"parameterUnit":"kt","parameterCategory":2,"dx":1,"dy":1,"la1":30.253999710083008,"la2":30.299108505249023,"lo1":-89.0895004272461,"lo2":-89.04439544677734,"nx":28,"ny":28,"refTime":"2022-10-21T21:00:00:Z","depth":0,"parameterNumber":2,"parameterNumberName":"V-component_of_WINDS"},"data":[7.2883,7.2827,7.2804,7.2726,7.2691,7.2633,7.2604,7.2562,7.2523,7.2446,7.2397,7.2363,7.2309,7.2241,7.2183,7.2168,7.2145,7.2144,7.2126,7.2159,7.2162,7.2164,7.2178,7.2139,7.2139,7.2095,7.2095,7.2095,7.2912,7.2879,7.2831,7.2769,7.2727,7.2715,7.2662,7.2626,7.2572,7.2522,7.2472,7.2401,7.234,7.2284,7.2219,7.2187,7.2176,7.2172,7.2173,7.2164,7.2199,7.2214,7.2183,7.2183,7.2183,7.2183,7.2183,7.2183,7.2958,7.2925,7.2874,7.2821,7.2783,7.274,7.2702,7.2663,7.2612,7.2546,7.2523,7.2459,7.24,7.2307,7.2268,7.2215,7.2214,7.22,7.2196,7.2193,7.2194,7.2262,7.2202,7.2202,7.2202,7.2202,7.2202,0,7.2984,7.2967,7.292,7.2865,7.2825,7.2778,7.2731,7.2706,7.2655,7.2615,7.2554,7.2513,7.2431,7.2367,7.2299,7.226,7.2238,7.2232,7.2222,7.2233,7.2252,7.2241,7.2299,7.2233,7.2233,7.2233,7.2233,7.2233,7.3029,7.2992,7.2926,7.2895,7.2864,7.2814,7.2778,7.2737,7.27,7.2632,7.2601,7.2538,7.2485,7.2386,7.2334,7.2271,7.2259,7.2237,7.2248,7.2262,7.2257,7.226,7.2256,7.2235,7.2235,7.2235,7.2234,0,7.3056,7.3017,7.2951,7.2887,7.287,7.2832,7.2775,7.2737,7.2702,7.2644,7.2627,7.2569,7.2507,7.2459,7.2375,7.2351,7.2283,7.2273,7.2304,7.2299,7.2274,7.2277,7.2202,7.219,7.223,7.2229,7.2229,0,7.3078,7.303,7.2974,7.2938,7.2883,7.2843,7.2788,7.2752,7.2702,7.2656,7.2625,7.2582,7.2526,7.2474,7.2438,7.2373,7.2357,7.2334,7.2325,7.2337,7.234,7.2313,7.2315,7.2306,7.2307,7.2307,7.2307,0,7.3125,7.3037,7.2979,7.2952,7.2877,7.285,7.2816,7.276,7.2724,7.2668,7.2644,7.2581,7.2546,7.2496,7.2452,7.2461,7.2371,7.2374,7.2347,7.2348,7.2328,7.233,7.2277,7.2308,7.2308,7.2308,7.2308,0,7.3135,7.3086,7.3007,7.2944,7.2922,7.2882,7.282,7.2775,7.2716,7.2693,7.2648,7.2621,7.256,7.2568,7.2483,7.2509,7.2476,7.2448,7.2445,7.2436,7.2446,7.2422,7.2378,7.2371,7.2429,7.243,7.2431,0,7.32,7.3109,7.3075,7.2999,7.2951,7.2922,7.2875,7.2825,7.279,7.2741,7.2699,7.2642,7.2637,7.2612,7.2577,7.253,7.2496,7.2533,7.2457,7.2455,7.2475,7.2433,7.2439,7.2393,7.2443,7.2441,7.244,0,7.3245,7.3157,7.3146,7.3114,7.3044,7.3001,7.2948,7.2884,7.2854,7.2799,7.2752,7.2669,7.2662,7.262,7.259,7.2555,7.2518,7.2551,7.2549,7.2547,7.2445,7.2451,7.2443,7.2505,7.2503,7.2502,7.245,0,7.3271,7.322,7.3188,7.3118,7.3078,7.3027,7.298,7.2943,7.2921,7.2885,7.2813,7.2755,7.2685,7.2663,7.2639,7.2576,7.2578,7.2571,7.2573,7.2547,7.2528,7.2521,7.2605,7.2605,7.2605,7.2605,0,0,7.3342,7.3268,7.3231,7.318,7.3144,7.3114,7.3064,7.3024,7.2944,7.2919,7.2921,7.2795,7.2747,7.2664,7.2652,7.2623,7.2607,7.2617,7.256,7.2555,7.2551,7.2532,7.2525,7.2604,7.2604,7.2604,7.2604,0,7.3342,7.3302,7.3255,7.3214,7.3152,7.3116,7.3105,7.3036,7.301,7.294,7.2912,7.2863,7.2762,7.2715,7.2678,7.2627,7.2606,7.2609,7.2599,7.256,7.2555,7.2551,7.2532,7.2526,7.2603,7.2603,7.2603,0,7.3377,7.333,7.3302,7.3222,7.3179,7.3128,7.3122,7.3067,7.3028,7.2992,7.2923,7.2883,7.2815,7.2744,7.2709,7.2709,7.2609,7.2631,7.2631,7.2625,7.2584,7.2579,7.2574,7.2636,7.2636,7.2636,0,0,7.3383,7.3336,7.327,7.3218,7.3194,7.314,7.3107,7.3081,7.3025,7.3002,7.2951,7.2893,7.2834,7.2796,7.2737,7.2666,7.2647,7.2637,7.2636,7.2634,7.2629,7.2587,7.2582,7.2638,7.2638,7.2638,0,0,7.3384,7.3308,7.3297,7.3231,7.318,7.3108,7.3076,7.3059,7.3002,7.3002,7.2951,7.2933,7.2865,7.2826,7.285,7.2737,7.274,7.2733,7.2765,7.2762,7.276,7.2771,7.283,0,0,0,0,0,7.3361,7.3318,7.3309,7.3291,7.3185,7.3115,7.31,7.306,7.3065,7.3041,7.2995,7.2976,7.2829,7.2849,7.2829,7.2802,7.2654,7.2651,7.2649,7.2672,7.267,7.2668,0,0,0,0,0,0,7.3353,7.3331,7.331,7.3238,7.3213,7.3116,7.3115,7.3102,7.3067,7.3064,7.2985,7.2973,7.2934,7.2856,7.2838,7.2814,7.2836,7.2653,7.2651,7.2648,7.2671,7.2669,7.2668,0,0,0,0,0,7.3347,7.333,7.3172,7.3238,7.3217,7.3153,7.3116,7.3106,7.3077,7.3005,7.2993,7.305,7.2935,7.2917,7.2845,7.2823,7.2848,7.2841,7.2652,7.265,7.2648,7.267,0,0,0,0,0,0,7.3343,7.3318,7.3167,7.3159,7.3251,7.3158,7.3142,7.3109,7.3019,7.3006,7.3068,7.3067,7.2935,7.2921,7.2908,7.2829,7.2857,7.2851,7.2847,7.265,7.2648,7.2647,0,0,0,0,0,0,7.3327,7.3311,7.3163,7.3182,7.3176,7.3162,7.3148,7.308,7.3018,7.3086,7.3083,7.3068,7.2953,7.2923,7.2913,7.2808,7.2864,7.2858,7.2854,7.2851,7.2649,7.2648,0,0,0,0,0,0,7.332,7.3306,7.3184,7.3179,7.3174,7.308,7.31,7.2993,7.304,7.309,7.3043,7.3044,7.2955,7.2944,7.2917,7.2816,7.281,7.2864,7.286,7.2857,7.2855,0,0,0,0,0,0,0,7.3314,7.3415,7.3215,7.3177,7.3172,7.3085,7.3082,7.308,7.304,7.3041,7.3042,7.3043,7.2899,7.2892,7.2886,7.2823,0,0,7.2865,7.2862,0,0,0,0,0,0,0,0,7.342,7.3416,7.3215,7.3214,7.3212,7.3084,7.3082,7.3081,7.3041,7.3041,7.3042,7.3043,7.2897,7.2892,7.2886,0,0,0,0,0,0,0,0,0,0,0,0,0,0,0,7.3215,7.3214,0,7.3084,7.3082,7.3081,7.3041,7.3041,7.3042,7.3043,7.2896,7.2891,7.2887,0,0,0,0,0,0,0,0,0,0,0,0,0,0,0,0,0,0,0,0,0,0,0,0,0,0,0,0,0,0,0,0,0,0,0,0,0,0,0,0,0,0,0,0,0,0,0,0,0,0,0,0,0,0,0,0,0,0,0,0,0,0,0,0,0,0,0,0,0]}]]]